Notices

What's New in latest Release from April 7th, 2021:

- Updated Glossary, including Speed of Maximum Gust, and Total Hourly Precipitation

- Updated national and regional climate services offices contacts and prices information

- Addition of station inventory lists for 1981-2010, 1971-2000, and 1961-1990 Normals.

If you haven't already, please take our survey and provide feedback about our website: https://eccc.sondage-survey.ca/f/LanguageSelection.aspx?s=442ca660-fcf1-47c0-95a9-59707d6fd709

Hourly Data Report for April 09, 2018

CLYDE RIVER A
NUNAVUT
Current Station Operator: NAVCAN

70°29'09.000" N
68°31'01.000" W
26.50 m
2400804
71090
YCY

Download Data

Hourly Data (April 2018)
Hourly Data Report for April 9, 2018
TIME
LST
Temp Definition
°C
Dew Point Definition
°C
Rel Hum Definition
%
Precip. Amount Definition
mm

Wind Dir Definition
10's deg

Wind Spd Definition
km/h
Visibility Definition
km
Stn Press Definition
kPa
Hmdx Definition


Wind Chill Definition


Weather Definition


00:00 -21.2 -24.1 78 0.0 30 22 16.1 100.14   -32 LegendNANA
01:00 -20.5 -23.1 80 0.0 30 28 14.5 100.13   -33 LegendNANA
02:00 -20.6 -23.2 80 0.0 31 30 9.7 100.18   -33 Fog
03:00 -20.5 -23.1 80 0.0 31 34 6.4 100.18   -34 Haze
04:00 -20.5 -23.1 80 0.0 32 34 6.4 100.20   -34 Haze
05:00 -20.6 -23.2 80 0.0 31 21 9.7 100.23   -31 Snow
06:00 -21.1 -23.8 79 0.0 32 26 9.7 100.22   -33 Snow
07:00 -20.4 -23.5 77 0.0 32 21 16.1 100.24   -31 LegendNANA
08:00 -20.1 -23.2 77 0.0 31 15 9.7 100.31   -29 Snow
09:00 -18.9 -22.0 77 0.0 27 17 4.0 100.32   -28 Snow
10:00 -17.8 -21.2 75 0.0 25 18 4.8 100.33   -27 Snow
11:00 -17.3 -21.5 70 0.0 25 13 12.9 100.35   -25 LegendNANA
12:00 -16.9 -21.0 71 0.0 25 11 16.1 100.37   -24 LegendNANA
13:00 -17.3 -21.3 72 0.0 25 13 16.1 100.38   -25 LegendNANA
14:00 -16.8 -20.8 71 0.0 25 11 16.1 100.38   -24 LegendNANA
15:00 -17.2 -21.0 73 0.0 25 9 16.1 100.41   -23 LegendNANA
16:00 -17.6 -21.2 74 0.0   0 16.1 100.40     LegendNANA
17:00 -17.4 -21.0 74 0.0 3 4 16.1 100.39   -21 LegendNANA
18:00 -17.8 -21.1 76 0.0 26 9 16.1 100.37   -24 LegendNANA
19:00 -18.6 -21.8 76 0.0 26 5 16.1 100.38   -23 LegendNANA
20:00 -19.5 -22.0 81 0.0 25 9 16.1 100.36   -26 LegendNANA
21:00 -20.4 -22.9 81 0.0 25 9 16.1 100.33   -27 LegendNANA
22:00 -20.5 -23.0 81 0.0 22 4 16.1 100.29   -24 LegendNANA
23:00 -21.3 -23.5 83 0.0 24 5 16.1 100.22   -26 Snow

Notes on Data Quality.

Legend

  • E = Estimated
  • M = Missing
  • NA = Not Available*
  • [empty] = Indicates an unobserved value
Date modified: